Погода в Баймаке

Россия / Республика Башкортостан     52°35′28″N   58°18′40″E
темп.,
°C
ветер,
м/с
пор.,
м/с
влажн.,
%
обл.,
%
осадки,
мм/ч
давл.,
гПа
погр.,
м
20 апреля, вт
вт2023:00−2в71141100 0.0 1031905
02:00−3в6104536 0.0 1032862
05:00−4всв611470 0.0 1033765
08:00−3в712400 0.0 1034795
11:00+1в79310 0.0 10341115
14:00+3в66300 0.0 10331305
17:00+4в45300 0.0 10321256
20:00+2в33430 0.0 103231
21 апреля, ср
ср2123:000в11460 0.0 103310
02:000в11470 0.0 103310
05:00−1юз11490 0.0 103410
08:00+1ююз114317 0.0 1035178
11:00+5юв34345 0.0 1033757
14:00+8ююв4433100 0.0 10331010
17:00+9ююв553464 0.0 10321047
20:00+6ююв3650100 0.0 1033103
22 апреля, чт
чт2223:00+4юв3754100 0.0 1033136
02:00+4ю3857100 0.0 1034210
05:00+3ю2665100 0.1 1035193
08:00+4ююв3958100 0.1 1035380
11:00+5ююв5948100 0.1 1035612
14:00+8ююв7939100 0.0 10341062
17:00+9ююв6943100 0.0 10331243
20:00+8ююв3750100 0.0 1033189
23 апреля, пт
пт2323:00+6ююз3863100 0.1 1033298
02:00+6ююв4966100 0.4 1032321
05:00+4ююв4879100 0.6 1032611
08:00+6юв5971100 0.2 1031549
11:00+10ююв6951100 0.2 10301073
14:00+13ююв8938100 0.0 10271816
17:00+12ю7843100 0.0 10271670
20:00+7ююв3777100 0.8 1028745
24 апреля, сб
сб2423:00+6юв5981100 2.0 1026836
02:00+5юв4984100 2.6 1025878
05:00+4юв51089100 3.7 1022733
08:00+4вюв51193100 2.9 1021543
11:00+8вюв8125496 2.9 10171028
14:00+11юв10144499 0.0 10131682
17:00+13юв9124462 0.0 10091906
20:00+8юв388988 1.9 1009634